Hourly Weather Roundup
Issued by NWS Central Illinois

Home | Current Version | Previous Version | Text Only | Print | Product List | Glossary On
Versions: 1 2 3 4 5 6 7 8 9 10 11 12 13 14 15 16 17 18 19 20 21 22 23 24 25 26 27 28 29 30 31 32 33 34 35 36 37 38 39 40 41 42 43 44 45 46 47 48 49 50
000
NZUS43 KILX 030910
HWRILX

AREA WEATHER ROUNDUP
NATIONAL WEATHER SERVICE, LINCOLN IL
400 AM CDT SUN MAY 03 2015


CITY           SKY/WX    TMP DP  RH WIND       PRES   REMARKS
BLOOMINGTON    MOCLDY    59  47  64 S10       30.00F
CHAMPAIGN      CLOUDY    62  45  53 S12       30.01S
DANVILLE       CLOUDY    57  46  66 S6        30.00S
DECATUR        CLOUDY    63  45  51 S10       30.01S
EFFINGHAM      CLOUDY    61  43  50 SE5       30.05S
FLORA          CLOUDY    56  52  85 CALM      30.05R
GALESBURG      MOCLDY    58  48  69 S7        29.95R
JACKSONVILLE   MOCLDY    65  46  49 S8        29.97S
LACON          LGT RAIN  59  43  55 S3        29.96S
LAWRENCEVILLE  CLOUDY    59  51  75 CALM      30.06R
LITCHFIELD     CLOUDY    60  45  57 S10       30.01S
$$


CITY           SKY/WX    TMP DP  RH WIND       PRES   REMARKS
LINCOLN        CLOUDY    61  46  56 S5        29.98S
MACOMB         PTCLDY    56  48  74 S9        29.97S
MATTOON        CLOUDY    61  46  57 S7        30.02S
MT CARMEL AP   CLOUDY    59  50  72 SE3       30.05S
OLNEY-NOBLE AP CLOUDY    57  50  77 SE3       30.05S
PARIS          CLOUDY    59  49  68 S5        30.04S
PEORIA         CLOUDY    62  47  57 S8        29.97F
PONTIAC        CLOUDY    60  46  59 S7        29.99S
RANTOUL        CLOUDY    63  46  54 SW5       30.01S
ROBINSON       CLOUDY    59  49  70 S3        30.06S
SPRINGFIELD    CLOUDY    63  46  54 S12       29.99R
TAYLORVILLE    MOCLDY    61  45  55 S10       30.00S
$$

...REGIONAL REPORTS...


CITY           SKY/WX    TMP DP  RH WIND       PRES   REMARKS
CHICAGO O`HARE CLOUDY    59  42  53 S6        29.96S
KANKAKEE       CLOUDY    57  44  62 S5        30.01R
MOLINE         MOCLDY    63  45  51 S10       29.92S
MOUNT VERNON   CLOUDY    55  48  76 CALM      30.05S
PITTSFIELD     PTCLDY    60  48  66 S8        29.97S
QUINCY         PTCLDY    60  46  59 S7        29.94S
ROCKFORD       CLOUDY    58  43  57 S5        29.96F
$$


CITY           SKY/WX    TMP DP  RH WIND       PRES   REMARKS
BURLINGTON     MOCLDY    61  48  62 S9        29.92S
CEDAR RAPIDS     N/A    N/A N/A N/A MISG        N/A
DES MOINES     CLOUDY    61  53  75 S16       29.81F
KIRKSVILLE     CLOUDY    57  50  77 S9        29.91F
OTTUMWA        CLOUDY    56  51  84 SE10      29.87F
ST LOUIS       CLOUDY    67  43  41 S6        29.99F
$$


CITY           SKY/WX    TMP DP  RH WIND       PRES   REMARKS
TERRE HAUTE    CLOUDY    57  48  72 S6        30.05S
EVANSVILLE     MOCLDY    54  50  86 CALM      30.07R FOG
INDIANAPOLIS   CLOUDY    55  44  66 CALM      30.04S
LAFAYETTE      MOCLDY    52  43  71 CALM      30.03S
MADISON        CLOUDY    60  48  64 S8        29.91F
MILWAUKEE      MOCLDY    59  40  49 SW8       29.93F
$$




USA.gov is the U.S. government's official web portal to all federal, state and local government web resources and services.